GW4341 Weather Reports


time (UTC)temp
F
wind
direction
speed
knots
gust
knots
rain 1hr
in
rain 24hr
in
rain mn
in
humidity
%
barometer
mb
20260504190651 62 172 4.3 5.2 0.00 0.00 0.00 26 1011.6
20260504190148 63 168 7.0 8.7 0.00 0.00 0.00 25 1011.6
20260504185645 61 33 1.7 2.6 0.00 0.00 0.00 26 1012.0
20260504185142 63 248 3.5 3.5 0.00 0.00 0.00 26 1012.1
20260504184638 61 84 0.9 0.9 0.00 0.00 0.00 27 1012.0
20260504184133 60 352 10.4 13.0 0.00 0.00 0.00 28 1012.3
20260504183630 61 256 6.1 7.8 0.00 0.00 0.00 28 1012.3
20260504183127 61 286 2.6 3.5 0.00 0.00 0.00 26 1012.2
20260504182625 61 190 3.5 3.5 0.00 0.00 0.00 26 1012.2
20260504182122 62 119 0.9 0.9 0.00 0.00 0.00 26 1011.8
20260504181620 61 141 2.6 3.5 0.00 0.00 0.00 26 1012.1
20260504181117 62 191 9.6 11.3 0.00 0.00 0.00 26 1012.2
20260504180616 62 183 11.3 14.8 0.00 0.00 0.00 26 1012.1
20260504180115 61 173 5.2 7.0 0.00 0.00 0.00 27 1012.3
20260504175611 62 242 5.2 7.0 0.00 0.00 0.00 26 1012.3
20260504175108 62 208 7.0 7.8 0.00 0.00 0.00 26 1012.5
20260504174606 60 159 5.2 6.1 0.00 0.00 0.00 27 1012.5
20260504174102 60 274 3.5 3.5 0.00 0.00 0.00 27 1012.5
20260504173559 60 125 0.9 0.9 0.00 0.00 0.00 27 1012.6
20260504173057 60 347 7.0 7.0 0.00 0.00 0.00 26 1012.6
20260504172553 61 336 5.2 6.1 0.00 0.00 0.00 27 1012.5
20260504172050 60 297 2.6 2.6 0.00 0.00 0.00 27 1012.7
20260504171546 61 345 7.8 7.8 0.00 0.00 0.00 28 1012.7
20260504171044 61 335 3.5 5.2 0.00 0.00 0.00 27 1012.6
20260504170539 59 112 5.2 7.0 0.00 0.00 0.00 28 1012.6
20260504150923 51 104 0.0 0.0 0.00 0.00 0.00 36 1013.1
20260504150420 49 104 0.0 0.9 0.00 0.00 0.00 38 1013.4
20260504140846 39 21 2.6 3.5 0.00 0.00 0.00 51 1013.8
20260504140342 37 96 2.6 3.5 0.00 0.00 0.00 52 1013.8
20260504130811 30 94 0.0 0.0 0.00 0.00 0.00 66 1013.6
20260504130308 30 86 0.9 0.9 0.00 0.00 0.00 66 1013.6
20260504120231 28 19 0.9 1.7 0.00 0.00 0.00 66 1013.3
20260504110658 28 66 0.0 0.0 0.00 0.00 0.00 65 1013.7
20260504110154 28 59 0.0 0.0 0.00 0.00 0.00 66 1013.9
20260504100119 29 336 2.6 2.6 0.00 0.00 0.00 65 1013.8
20260504081512 35 36 0.9 0.9 0.00 0.00 0.00 60 1014.2
20260504081007 34 28 1.7 2.6 0.00 0.00 0.00 61 1014.3
20260504080504 34 52 0.9 0.9 0.00 0.00 0.00 60 1014.0
20260504050317 42 337 5.2 6.1 0.00 0.00 0.00 49 1014.9
20260504045814 42 353 6.1 7.0 0.00 0.00 0.00 48 1015.0
20260504045309 42 319 5.2 7.0 0.00 0.00 0.00 48 1014.9
20260504044806 41 331 3.5 3.5 0.00 0.00 0.00 49 1014.9
20260504044303 42 333 3.5 3.5 0.00 0.00 0.00 48 1015.2
20260504043800 43 338 3.5 5.2 0.00 0.00 0.00 47 1015.2
20260504043257 42 340 3.5 3.5 0.00 0.00 0.00 48 1015.3
20260504042755 43 333 2.6 2.6 0.00 0.00 0.00 47 1014.9
20260504042251 43 356 1.7 1.7 0.00 0.00 0.00 46 1015.2
20260504041748 45 340 2.6 2.6 0.00 0.00 0.00 44 1015.3
20260504041244 44 291 2.6 2.6 0.00 0.00 0.00 44 1015.3
20260504040740 45 299 2.6 2.6 0.00 0.00 0.00 43 1015.2
20260504040238 44 276 2.6 2.6 0.00 0.00 0.00 44 1015.2
20260504035733 44 290 1.7 2.6 0.00 0.00 0.00 44 1015.2
20260504035230 45 297 4.3 5.2 0.00 0.00 0.00 43 1015.0
20260504034728 44 315 4.3 6.1 0.00 0.00 0.00 43 1015.0
20260504034225 48 349 2.6 2.6 0.00 0.00 0.00 39 1015.0
20260504033723 49 280 3.5 3.5 0.00 0.00 0.00 39 1014.9
20260504033220 49 251 4.3 6.1 0.00 0.00 0.00 38 1014.8
20260504032717 50 275 5.2 6.1 0.00 0.00 0.00 37 1014.9
20260504032214 50 256 4.3 5.2 0.00 0.00 0.00 36 1014.9
20260504031710 50 292 4.3 5.2 0.00 0.00 0.00 36 1014.9
20260504031208 50 283 4.3 5.2 0.00 0.00 0.00 36 1014.8
20260504030703 50 274 5.2 7.0 0.00 0.00 0.00 36 1014.7
20260504030201 51 309 3.5 3.5 0.00 0.00 0.00 35 1014.5
20260504025657 51 243 5.2 6.1 0.00 0.00 0.00 35 1014.7
20260504025154 52 282 4.3 5.2 0.00 0.00 0.00 34 1014.5
20260504024651 52 271 4.3 6.1 0.00 0.00 0.00 34 1014.5
20260504024147 52 277 3.5 3.5 0.00 0.00 0.00 34 1014.4
20260504023644 52 273 3.5 5.2 0.00 0.00 0.00 34 1014.8
20260504023140 53 281 5.2 6.1 0.00 0.00 0.00 33 1014.5
20260504022637 55 284 5.2 6.1 0.00 0.00 0.00 32 1014.3
20260504022133 55 278 5.2 6.1 0.00 0.00 0.00 32 1014.4
20260504021631 55 282 5.2 6.1 0.00 0.00 0.00 32 1014.5
20260504021127 56 259 7.0 8.7 0.00 0.00 0.00 31 1014.5
20260504020625 56 273 9.6 12.2 0.00 0.00 0.00 30 1014.4
20260504020120 57 279 7.0 7.8 0.00 0.00 0.00 30 1014.4
20260504015617 58 302 7.8 9.6 0.00 0.00 0.00 28 1014.3
20260504015113 58 261 7.8 11.3 0.00 0.00 0.00 28 1014.4
20260504014609 58 260 7.0 8.7 0.00 0.00 0.00 28 1014.4
20260504014107 58 278 5.2 6.1 0.00 0.00 0.00 28 1014.4
20260504013604 58 269 5.2 7.0 0.00 0.00 0.00 27 1014.3
20260504013101 58 262 7.0 7.8 0.00 0.00 0.00 27 1014.3
20260504012558 59 275 6.1 7.0 0.00 0.00 0.00 26 1014.4
20260504012056 61 276 9.6 13.0 0.00 0.00 0.00 25 1014.3
20260504011553 62 247 8.7 11.3 0.00 0.00 0.00 24 1014.8
20260504011049 62 294 9.6 11.3 0.00 0.00 0.00 24 1014.4
20260504010544 62 279 8.7 9.6 0.00 0.00 0.00 23 1014.7
20260504010041 63 287 7.0 7.8 0.00 0.00 0.00 23 1014.5
20260504005538 63 279 5.2 7.8 0.00 0.00 0.00 23 1014.7
20260504005035 63 273 9.6 13.0 0.00 0.00 0.00 23 1014.7
20260504004533 63 265 12.2 13.9 0.00 0.00 0.00 23 1014.7
20260504004030 64 274 12.2 13.9 0.00 0.00 0.00 22 1014.7
20260504003526 64 291 10.4 13.0 0.00 0.00 0.00 22 1014.8
20260504003023 64 282 7.0 11.3 0.00 0.00 0.00 21 1014.5
20260504002520 65 291 10.4 15.6 0.00 0.00 0.00 21 1014.7
20260504002017 65 285 7.8 8.7 0.00 0.00 0.00 21 1014.7
20260504001515 65 307 6.1 7.8 0.00 0.00 0.00 20 1014.4
20260504001011 65 290 7.8 8.7 0.00 0.00 0.00 20 1014.5
20260504000508 63 300 5.2 6.1 0.00 0.00 0.00 21 1014.4
20260504000005 64 291 7.8 9.6 0.00 0.00 0.00 21 1014.5
20260503235503 65 339 6.1 7.0 0.00 0.00 0.00 20 1014.5
20260503235000 64 8 5.2 6.1 0.00 0.00 0.00 20 1014.7
20260503234457 63 80 3.5 5.2 0.00 0.00 0.00 20 1014.7
20260503233955 65 348 7.8 9.6 0.00 0.00 0.00 20 1014.8
20260503233452 64 352 10.4 11.3 0.00 0.00 0.00 20 1014.8
20260503232948 63 312 7.8 8.7 0.00 0.00 0.00 21 1014.8
20260503232445 63 329 7.0 8.7 0.00 0.00 0.00 21 1014.8
20260503231943 63 326 6.1 7.0 0.00 0.00 0.00 21 1015.0
20260503231440 63 326 7.8 8.7 0.00 0.00 0.00 22 1014.8
20260503230936 65 291 7.8 8.7 0.00 0.00 0.00 21 1015.0
20260503230433 66 294 5.2 6.1 0.00 0.00 0.00 19 1014.9
20260503225931 65 247 5.2 7.0 0.00 0.00 0.00 19 1015.0
20260503225427 65 247 7.8 8.7 0.00 0.00 0.00 19 1015.2
20260503224923 65 320 8.7 9.6 0.00 0.00 0.00 19 1015.2
20260503224420 64 280 6.1 7.0 0.00 0.00 0.00 19 1015.0
20260503223918 64 287 10.4 13.0 0.00 0.00 0.00 19 1015.2
20260503223416 64 286 7.0 7.8 0.00 0.00 0.00 19 1015.2
20260503222911 64 263 7.0 7.8 0.00 0.00 0.00 20 1015.0
20260503222410 63 229 5.2 6.1 0.00 0.00 0.00 20 1015.2
20260503221907 64 279 5.2 7.0 0.00 0.00 0.00 20 1015.4
20260503221406 64 262 5.2 7.8 0.00 0.00 0.00 20 1015.5
20260503220902 64 271 7.0 7.8 0.00 0.00 0.00 20 1015.5
20260503220358 64 271 3.5 5.2 0.00 0.00 0.00 20 1015.6
20260503215855 63 261 7.0 7.8 0.00 0.00 0.00 20 1015.6
20260503215353 64 305 5.2 6.1 0.00 0.00 0.00 20 1015.8
20260503214850 63 291 2.6 2.6 0.00 0.00 0.00 20 1015.8
20260503214347 63 260 2.6 3.5 0.00 0.00 0.00 20 1015.9
20260503213844 63 315 7.0 8.7 0.00 0.00 0.00 20 1016.1
20260503213342 63 355 2.6 3.5 0.00 0.00 0.00 21 1016.1
20260503212839 62 1 5.2 7.0 0.00 0.00 0.00 21 1015.9
20260503212337 63 267 7.0 9.6 0.00 0.00 0.00 21 1016.1
20260503211834 63 351 3.5 5.2 0.00 0.00 0.00 20 1016.0
20260503211330 63 287 7.0 8.7 0.00 0.00 0.00 20 1016.0
20260503210826 64 314 5.2 6.1 0.00 0.00 0.00 19 1016.3
20260503210323 64 353 2.6 2.6 0.00 0.00 0.00 19 1016.1
20260503205818 64 358 5.2 6.1 0.00 0.00 0.00 19 1016.1
20260503205315 63 5 2.6 3.5 0.00 0.00 0.00 20 1016.1
20260503204811 63 289 7.0 7.8 0.00 0.00 0.00 20 1016.4
20260503204309 63 309 8.7 11.3 0.00 0.00 0.00 20 1016.4
20260503203806 64 347 5.2 7.0 0.00 0.00 0.00 19 1016.5
20260503203303 64 287 9.6 13.0 0.00 0.00 0.00 19 1016.5
20260503202800 64 290 7.8 8.7 0.00 0.00 0.00 18 1016.6
20260503202258 65 270 4.3 5.2 0.00 0.00 0.00 18 1016.5
20260503201756 67 329 3.5 6.1 0.00 0.00 0.00 18 1016.6
20260503201253 66 254 6.1 7.0 0.00 0.00 0.00 18 1016.8
20260503200750 68 264 8.7 8.7 0.00 0.00 0.00 17 1016.6
20260503200245 65 349 4.3 5.2 0.00 0.00 0.00 18 1016.6
20260503195742 64 293 0.9 1.7 0.00 0.00 0.00 17 1016.8
20260503195239 64 189 5.2 6.1 0.00 0.00 0.00 17 1016.9
20260503194737 65 262 3.5 3.5 0.00 0.00 0.00 19 1017.1
20260503194232 66 100 0.0 0.0 0.00 0.00 0.00 17 1017.0
20260503193728 65 209 3.5 5.2 0.00 0.00 0.00 18 1017.0
20260503193225 65 242 4.3 6.1 0.00 0.00 0.00 18 1017.2
20260503192721 64 286 5.2 7.8 0.00 0.00 0.00 17 1017.5
20260503192216 65 271 7.8 8.7 0.00 0.00 0.00 17 1017.5
20260503191713 64 228 7.0 7.8 0.00 0.00 0.00 19 1017.1
20260503191210 65 288 7.8 8.7 0.00 0.00 0.00 17 1017.6